Location: Dampvalley
(47.9094°N, 6.1967°E)
Time: 06:25:45
(UTC+00:00)

Cosmos 2219 Rocket - Pass Details

Date: 05 March 2021
Orbit: 826 x 848 km, 71.0° (Epoch: 18 April)

Event Time Altitude Azimuth Distance (km) Brightness Sun altitude
Rises 03:56:38 0° 335° (NNW) 3,402 5.3 -22.7°
Reaches altitude 10° 03:59:10 10° 341° (NNW) 2,467 4.6 -22.3°
Maximum altitude 04:04:39 49° 56° (NE) 1,080 3.1 -21.4°
Drops below altitude 10° 04:10:08 10° 131° (SE) 2,465 5.1 -20.5°
Sets 04:12:40 0° 137° (SE) 3,398 5.8 -20.1°
